Home > Weather > Kazan > Past weeks

Flag for Russia Past Weather in Kazan, Russia — Yesterday and Last 2 Weeks

Now
68 °F

Partly sunny.


Feels Like: 68 °F
Forecast: 53 / 77 °F
Wind: 13 mph from North

Location: Kazan'

Current Time: Jun 30, 2016 at 11:44:36 AM

Latest Report: Jun 30, 2016 at 11:00 AM


Visibility: N/A

Pressure: 29.89 "Hg

Humidity: 53%

Dew Point: 50 °F

Location of KazanLocation

Past Weather in Kazan — Graph

°F

Kazan Temperature Yesterday

Maximum temperature yesterday: 70 °F (at 2:30 PM)
Minimum temperature yesterday: 46 °F (at 3:30 AM)
Average temperature yesterday: 60 °F

High & Low Weather Summary for the Past Weeks

 TemperatureHumidityPressure
High88 °F (Jun 20, 10:30 AM)100% (Jun 27, 12:00 AM)30.24 "Hg (Jun 27, 12:00 AM)
Low46 °F (Jun 29, 3:30 AM)28% (Jun 25, 3:00 PM)29.62 "Hg (Jun 27, 12:30 PM)
Average70 °F63%30.00 "Hg
* Reported Jun 15 10:00 AM — Jun 30 10:30 AM, Kazan, Weather by CustomWeather, © 2016

Note: Actual official high and low records may vary slightly from our data, if they occured in-between our weather recording intervals... More about our weather records

Advertising

Kazan Weather History for the Previous 24 Hours

Scroll right to see more
 ConditionsComfort  
Time TempWeatherWind HumidityBarometerVisibility
10:30 AM
Thu, Jun 30
68 °FPartly sunny.15 mph53%29.86 "HgN/A
10:00 AM68 °FPartly sunny.10 mph49%29.86 "HgN/A
9:30 AM70 °FPartly sunny.17 mph46%29.86 "HgN/A
9:00 AM66 °FPartly sunny.15 mph52%29.86 "HgN/A
8:30 AM68 °FScattered clouds.15 mph53%29.86 "HgN/A
8:00 AM66 °FSunny.13 mph52%29.86 "Hg10 mi
7:30 AM64 °FPassing clouds.10 mph56%29.86 "HgN/A
7:00 AM63 °FSunny.10 mph59%29.86 "Hg10 mi
6:30 AM63 °FSunny.10 mph64%29.86 "Hg10 mi
6:00 AM61 °FSunny.10 mph68%29.86 "Hg10 mi
5:30 AM57 °FSunny.8 mph77%29.86 "Hg10 mi
5:00 AM55 °FSunny.6 mph82%29.86 "Hg10 mi
4:30 AM54 °FSunny.6 mph82%29.86 "Hg10 mi
4:00 AM52 °FSunny.8 mph88%29.86 "Hg10 mi
3:30 AM50 °FSunny.6 mph88%29.86 "Hg10 mi
3:00 AM50 °FClear.8 mph88%29.86 "Hg10 mi
2:30 AM52 °FClear.8 mph82%29.86 "Hg10 mi
2:00 AM50 °FClear.6 mph82%29.86 "Hg10 mi
1:30 AM52 °FClear.6 mph82%29.86 "Hg10 mi
1:00 AM54 °FClear.6 mph77%29.86 "Hg10 mi
12:30 AM54 °FClear.6 mph77%29.86 "Hg10 mi
12:00 AM55 °FClear.6 mph72%29.86 "Hg10 mi
11:30 PM
Wed, Jun 29
54 °FClear.3 mph77%29.86 "Hg10 mi
11:00 PM54 °FClear.3 mph77%29.86 "Hg10 mi
10:30 PM55 °FClear.3 mph67%29.86 "Hg10 mi
10:00 PM57 °FClear.6 mph63%29.86 "Hg10 mi
9:30 PM59 °FClear.6 mph59%29.86 "Hg10 mi
9:00 PM59 °FClear.6 mph59%29.86 "Hg10 mi
8:30 PM61 °FSunny.6 mph55%29.86 "Hg10 mi
8:00 PM64 °FSunny.6 mph46%29.86 "Hg10 mi
7:30 PM66 °FSunny.8 mph43%29.86 "Hg10 mi
7:00 PM68 °FSunny.8 mph40%29.86 "Hg10 mi
6:30 PM70 °FSunny.13 mph35%29.86 "Hg10 mi
6:00 PM70 °FSunny.13 mph35%29.83 "Hg10 mi
5:30 PM70 °FSunny.10 mph35%29.83 "Hg10 mi
5:00 PM70 °FPassing clouds.13 mph35%29.83 "HgN/A
4:30 PM70 °FPassing clouds.13 mph35%29.83 "HgN/A
4:00 PM70 °FPassing clouds.13 mph35%29.86 "HgN/A
3:30 PM70 °FPassing clouds.13 mph35%29.86 "HgN/A
3:00 PM70 °FPassing clouds.10 mph35%29.83 "HgN/A
2:30 PM70 °FPassing clouds.15 mph35%29.86 "HgN/A
2:00 PM68 °FPassing clouds.15 mph40%29.86 "HgN/A
1:30 PM68 °FPartly sunny.15 mph40%29.86 "HgN/A
1:00 PM66 °FPartly sunny.15 mph46%29.86 "HgN/A
12:30 PM66 °FPartly sunny.15 mph46%29.86 "HgN/A
12:00 PM64 °FPartly sunny.15 mph49%29.86 "HgN/A
11:30 AM63 °FPartly sunny.17 mph56%29.86 "HgN/A
11:00 AM63 °FScattered clouds.15 mph56%29.86 "HgN/A
Weather by CustomWeather, © 2016

See weather overviewHow to use our weather pages